Location: Blindenhusen
(47.7258°N, 8.7856°E)
Time: 01:31:56
(UTC+00:00)

Daily predictions for brighter satellites

Satellite Brightness Start Highest point End
(mag) Time Altitude Azimuth Time Altitude Azimuth Time Altitude Azimuth
Cosmos 2344 4.1 02:53:31 52° ESE 02:53:31 52° ESE 03:00:14 10° NE
USA 215 3.6 03:19:29 10° E 03:25:43 57° NNE 03:25:43 57° NNE
Cosmos 2369 Rocket 4.2 03:33:31 10° SSE 03:38:02 26° ESE 03:42:34 10° NE
NOSS 3-3 (A) 4.4 03:44:28 74° WNW 03:45:17 85° SW 03:53:46 10° SE
NOSS 3-3 (C) 4.4 03:44:32 74° NW 03:45:23 85° SW 03:53:52 10° SE
COSMO-SKYMED 1 4.2 03:44:05 10° SE 03:47:54 31° ENE 03:48:36 29° NE
Cosmos 1867 4.3 03:50:15 44° SSE 03:50:15 44° SSE 03:53:55 10° SSE
MOS 1-B Rocket 4.4 03:44:54 10° SSE 03:51:03 59° ENE 03:54:14 26° N
Cosmos 2208 Rocket 4.5 03:52:18 58° SE 03:52:18 58° SE 03:56:37 10° SSE
Tsikada Rocket 4.3 03:46:35 10° S 03:52:41 66° E 03:58:55 10° NNE
Gblst 52 Del rocket 4.3 03:54:35 81° SSE 03:54:39 81° SSE 04:01:19 10° ENE
Cosmos 1943 Rocket 2.1 04:06:39 79° SSW 04:07:02 90° SE 04:12:45 10° NNE
CZ-2C R/B 3.2 04:03:40 10° SSE 04:09:01 56° ENE 04:13:24 15° N
Cosmos 1241 Rocket 4.2 04:10:32 71° W 04:10:53 73° WSW 04:17:03 10° SSE
SL-19 R/B 4.2 04:05:40 10° SSE 04:11:15 84° ENE 04:13:20 41° NNW
SL-8 R/B 3.7 04:16:23 80° ENE 04:16:23 80° ENE 04:20:56 10° E
CENTAUR R/B 2.4 04:16:08 57° WSW 04:17:29 79° NW 04:24:43 10° NE
Cosmos 2297 3.6 04:21:07 61° WSW 04:21:59 73° WNW 04:27:44 10° NNE
Iridium 2 4.4 04:23:20 10° SSE 04:27:02 53° E 04:30:44 10° NNE
NOSS 3-2 (A) 3.4 04:27:49 53° WNW 04:28:33 57° NW 04:35:06 10° NE
Cosmos 2278 Rocket 3.9 04:33:50 18° NNW 04:33:50 18° NNW 04:36:02 10° N
Envisat 3.1 04:30:16 10° NNE 04:35:23 78° ESE 04:40:28 10° S
SKYMED 2 3.5 04:31:27 10° SSE 04:35:48 90° ENE 04:37:12 43° NNW
NOSS 3-2 (C) 3.2 04:33:35 37° SW 04:36:00 79° NW 04:42:35 10° NE
Meteor 2-6 Rocket 4.5 04:30:37 10° N 04:36:02 64° ENE 04:41:22 10° SSE
Cosmos 2098 Rocket 3.1 04:38:07 10° S 04:41:57 75° E 04:46:52 10° NNE
Meteor 2-3 Rocket 3.7 04:37:07 10° SSW 04:42:40 56° WNW 04:48:20 10° N
Landsat 5 3.6 04:40:55 10° SSE 04:45:26 88° ENE 04:48:26 21° NNW
Cosmos 968 Rocket 3.3 04:42:38 21° SW 04:46:04 66° WNW 04:51:12 10° NNE
Meteor 2-13 Rocket 4.3 04:40:59 10° SSW 04:47:05 76° W 04:53:12 10° N
CZ-4B R/B 4.1 04:43:26 10° NNE 04:47:54 84° ESE 04:52:23 10° SSW
Genesis I 4.1 04:49:24 36° SW 04:49:24 36° SW 04:52:34 10° S
FALCON 9 DEB 4.2 04:49:58 29° NE 04:49:58 29° NE 04:51:44 10° NE
Cosmos 921 Rocket 3.1 04:50:35 51° W 04:50:59 53° WSW 04:55:20 10° S
Okean 3 Rocket 3.8 04:49:05 10° S 04:53:36 73° E 04:58:09 10° NNE
DNEPR-1 R/B 3.8 04:53:15 34° NW 04:55:24 88° SW 05:01:02 10° SE
Cosmos 1833 4.3 04:51:16 19° NNW 04:55:30 79° ENE 05:01:14 10° SSE
H-2A R/B 3.5 04:52:13 10° SE 04:56:09 37° ENE 05:00:11 10° N
Cosmos 1812 2.7 04:56:57 53° WNW 04:57:20 56° W 05:01:06 10° S
CBERS 1 LM4 rocket 4.3 04:53:45 10° NNE 04:58:36 81° WNW 05:03:35 10° SSW
ADEOS 4.0 04:53:41 10° NNE 04:58:54 66° ESE 05:04:05 10° S
Cosmos 2142 Rocket 4.4 04:57:41 10° NNW 05:04:01 72° W 05:10:22 10° S
Cosmos 1151 Rocket 3.0 05:01:35 23° NNW 05:04:11 58° W 05:08:29 10° S
USA 238 DEB 3.7 05:00:11 23° WSW 05:04:15 55° NW 05:11:05 10° NE
USA 238 3.7 05:00:14 23° WSW 05:04:21 55° NW 05:11:11 10° NE
Cosmos 1766 Rocket 3.4 05:02:28 10° SSW 05:06:48 75° W 05:11:09 10° N
CZ-2C R/B 3.8 05:02:08 10° NNE 05:06:53 52° E 05:11:48 10° S
Cosmos 2344 3.9 05:03:34 26° W 05:07:25 44° NNW 05:15:15 10° NE
Cosmos 2263 4.2 05:02:06 10° SSW 05:07:48 89° ESE 05:13:35 10° NNE
USA 215 3.3 05:02:20 10° SE 05:08:49 64° SW 05:13:03 23° WNW
Meteor PRIRODA 4.3 05:08:39 10° NNE 05:12:14 55° E 05:15:47 10° S
Kosmos-917 4.4 05:12:30 33° WNW 05:13:09 37° NNW 05:18:21 10° NE
Meteor 1-31 Rocket 2.9 05:10:01 10° N 05:13:48 51° WNW 05:17:35 10° SSW
Cosmos 2279 Rocket 3.9 05:08:39 10° NNW 05:14:46 63° W 05:20:51 10° S
Cosmos 2297 Rocket 4.2 05:11:21 10° N 05:15:35 21° NE 05:19:49 10° E
Cosmos 1328 Rocket 3.5 05:12:42 11° NNW 05:16:53 60° W 05:21:10 10° S
IRAS Rocket 4.2 05:12:02 10° SSE 05:17:34 85° WSW 05:23:06 10° NNW
BREEZE-M DEB (TANK) 4.3 05:05:47 10° SW 05:18:02 49° SSE 05:21:38 10° E
SJ-12 4.5 05:15:21 10° N 05:19:08 35° WNW 05:22:55 10° SW
Cosmos 2369 Rocket 2.2 05:16:12 10° SW 05:21:41 56° WNW 05:27:13 10° NNE
FALCON 9 DEB 3.4 05:21:07 34° WNW 05:22:10 47° NNW 05:25:28 10° ENE
Cosmos 1862 3.4 05:19:18 10° SSW 05:23:07 49° WNW 05:26:59 10° N
COSMO-SKYMED 1 3.4 05:20:13 10° SSW 05:24:02 30° W 05:25:48 22° NW
Nadezhda 4 Rocket 4.2 05:20:05 10° S 05:26:13 74° E 05:32:27 10° NNE
H-2A R/B 3.6 05:23:58 10° N 05:27:06 26° WNW 05:30:15 10° SW
H-2A R/B 4.2 05:29:34 10° NE 05:33:48 28° E 05:38:00 10° SSE
Meteor 2-15 Rocket 4.4 05:28:26 10° N 05:34:32 84° W 05:40:36 10° S
Cosmos 2228 Rocket 4.3 05:30:40 10° N 05:34:59 45° ENE 05:39:19 10° SSE
CZ-4B R/B 2.5 05:33:01 10° NNE 05:36:38 86° W 05:40:11 10° SSW
Lacrosse 4 Rocket 4.1 05:36:24 10° NNE 05:37:40 11° NNE 05:38:56 10° NE
CZ-4B R/B 2.3 05:36:39 10° SSE 05:39:53 48° ENE 05:43:04 10° N
Cosmos 1408 Rocket 3.4 05:37:55 10° SSW 05:42:12 67° WNW 05:46:30 10° N
CZ-4C R/B 4.1 05:42:32 10° SSW 05:45:01 21° W 05:46:01 18° WNW
DMSP B5D2-2 4.2 05:40:14 10° S 05:45:20 54° W 05:50:28 10° NNW
Cosmos 1656 Rocket 3.8 05:40:09 10° SW 05:45:23 49° WNW 05:50:41 10° NNE
Cosmos 1503 Rocket 4.1 05:40:31 10° SW 05:45:42 58° WNW 05:51:00 10° NNE
USA 32 4.3 05:41:21 10° N 05:46:37 75° E 05:51:51 10° S
Cosmos 1743 Rocket 3.7 05:45:07 10° S 05:49:31 80° E 05:53:54 10° NNE
CZ-2C R/B 3.8 05:45:17 10° SW 05:49:38 24° W 05:53:56 10° NW
Cosmos 2227 Rocket 4.0 05:46:24 10° N 05:51:06 26° NE 05:55:45 10° ESE
Cosmos 1943 Rocket 3.4 05:48:15 13° W 05:51:36 21° NW 05:55:48 10° N
FAST Rocket 3.9 05:49:06 10° S 05:51:41 87° E 05:54:46 10° N
Cosmos 1515 Rocket 4.0 05:53:01 10° NNW 05:57:08 41° W 06:01:13 10° SSW
PSLV R/B 4.2 05:53:15 10° SSE 05:57:16 70° ENE 06:01:22 10° N
Cosmos 1777 Rocket 4.1 05:52:10 10° SSW 05:57:22 87° ESE 06:02:40 10° NNE
SL-8 R/B 4.3 05:54:22 12° W 05:58:32 47° SSW 06:03:07 10° SE
FALCON 9 DEB 3.9 05:56:51 14° WNW 05:58:46 27° N 06:01:19 10° ENE
Meteor 1-27 Rocket 3.8 05:54:42 10° NNW 06:00:13 59° W 06:05:50 10° S
Cosmos 1602 4.1 05:58:10 10° S 06:01:56 67° E 06:05:44 10° NNE
NOAA 6 4.1 05:57:00 10° NNE 06:02:09 85° ESE 06:07:17 10° SSW
COSMOS 2487 2.5 06:01:08 10° NNW 06:04:30 72° ENE 06:07:50 10° SSE
Cosmos 773 Rocket 4.3 05:59:49 10° NNW 06:04:49 47° WSW 06:09:45 10° S
FALCON 9 DEB 4.0 06:03:16 12° NW 06:05:26 26° N 06:07:56 10° ENE
SJ 16-02 1.3 06:02:32 10° SSW 06:06:55 81° WNW 06:11:20 10° NNE
FALCON 9 DEB 4.0 06:05:15 12° NW 06:07:31 27° N 06:10:02 10° ENE
CENTAUR R/B 3.6 06:03:42 10° W 06:09:23 30° NNW 06:15:59 10° NE
Alouette 2 Rocket 3.3 06:06:50 10° NNW 06:10:43 57° W 06:14:11 10° S
Cosmos 1689 Rocket 4.5 06:11:19 10° ESE 06:13:13 18° ENE 06:15:07 10° NNE
NOAA 12 4.2 06:08:05 10° N 06:13:13 53° WNW 06:18:18 10° SW
Envisat 4.4 06:10:32 10° NNW 06:13:48 17° WNW 06:17:03 10° W
Cosmos 1340 Rocket 2.9 06:11:10 10° SSW 06:15:02 55° WNW 06:18:59 10° N
SL-27 R/B 3.5 06:14:52 10° NW 06:18:00 28° WSW 06:21:06 10° SSW
Cosmos 1500 Rocket 3.8 06:14:08 10° SSW 06:18:28 50° WNW 06:22:50 10° N
Cosmos 1939 Rocket 3.2 06:16:07 10° N 06:19:50 40° WNW 06:23:29 10° SW
Cosmos 2219 4.4 06:16:40 10° NNW 06:21:57 39° NE 06:27:15 10° ESE
